When you browse on this site, cookies collect data to enhance your experience and personalize the content and advertising you see.
Visit our Privacy Policy to learn more. By continuing to use the site, you agree to this use of cookies and data.
EN

Hourly Weather Banfora

Today, 29 September, Tuesday

Time Temperature Precipitation Wind Pressure Humidity
00:00 +27°C° 0 mm 1 mps 733 mmHg 74%
01:00 +24°C° 0 mm 0 mps 733 mmHg 75%
02:00 +24°C° 0 mm 0 mps 732 mmHg 76%
03:00 +24°C° 0 mm 0 mps 732 mmHg 77%
04:00 +25°C° 0.2 mm 1 mps 732 mmHg 79%
05:00 +25°C° 0.2 mm 1 mps 733 mmHg 81%
06:00 +25°C° 0.2 mm 1 mps 733 mmHg 83%
07:00 +26°C° 0.1 mm 1 mps 733 mmHg 82%
08:00 +27°C° 0.1 mm 1 mps 734 mmHg 81%
09:00 +28°C° 0.1 mm 1 mps 734 mmHg 79%
10:00 +29°C° 0 mm 1 mps 734 mmHg 75%
11:00 +30°C° 0 mm 2 mps 734 mmHg 71%
12:00 +31°C° 0 mm 2 mps 733 mmHg 67%
13:00 +32°C° 0 mm 1 mps 733 mmHg 64%
14:00 +33°C° 0 mm 1 mps 732 mmHg 61%
15:00 +34°C° 0 mm 1 mps 732 mmHg 59%
16:00 +32°C° 0.2 mm 1 mps 731 mmHg 65%
17:00 +31°C° 0.2 mm 1 mps 731 mmHg 72%
18:00 +29°C° 0.2 mm 1 mps 731 mmHg 78%
19:00 +28°C° 0.1 mm 1 mps 732 mmHg 80%
20:00 +28°C° 0.1 mm 1 mps 732 mmHg 82%
21:00 +27°C° 0.1 mm 1 mps 733 mmHg 83%
22:00 +27°C° 0.6 mm 1 mps 733 mmHg 85%
23:00 +26°C° 0.6 mm 1 mps 733 mmHg 87%

Tomorrow, 30 September, Wednesday

Time Temperature Precipitation Wind Pressure Humidity
00:00 +26°C° 0.6 mm 1 mps 733 mmHg 88%
01:00 +26°C° 0 mm 1 mps 732 mmHg 88%
02:00 +26°C° 0 mm 1 mps 732 mmHg 89%
03:00 +26°C° 0 mm 1 mps 732 mmHg 89%
04:00 +26°C° 0 mm 1 mps 732 mmHg 90%
05:00 +25°C° 0 mm 1 mps 732 mmHg 91%
06:00 +25°C° 0 mm 1 mps 732 mmHg 93%
07:00 +26°C° 0 mm 2 mps 733 mmHg 89%
08:00 +27°C° 0 mm 3 mps 733 mmHg 86%
09:00 +28°C° 0 mm 3 mps 733 mmHg 82%
10:00 +29°C° 0 mm 3 mps 733 mmHg 78%
11:00 +31°C° 0 mm 3 mps 733 mmHg 73%
12:00 +33°C° 0 mm 3 mps 733 mmHg 69%
13:00 +33°C° 0.1 mm 3 mps 732 mmHg 69%
14:00 +33°C° 0.1 mm 3 mps 732 mmHg 68%
15:00 +33°C° 0.1 mm 3 mps 731 mmHg 68%
16:00 +31°C° 1.5 mm 2 mps 731 mmHg 74%
17:00 +30°C° 1.5 mm 2 mps 731 mmHg 80%
18:00 +28°C° 1.5 mm 1 mps 731 mmHg 87%
19:00 +28°C° 0.2 mm 1 mps 731 mmHg 88%
20:00 +27°C° 0.2 mm 1 mps 732 mmHg 90%
21:00 +27°C° 0.2 mm 2 mps 732 mmHg 92%
22:00 +26°C° 0 mm 2 mps 732 mmHg 92%
23:00 +26°C° 0 mm 2 mps 732 mmHg 93%

Day after tomorrow, 1 October, Thursday

Time Temperature Precipitation Wind Pressure Humidity
00:00 +26°C° 0 mm 2 mps 732 mmHg 93%
01:00 +26°C° 0.2 mm 2 mps 731 mmHg 93%
02:00 +25°C° 0.2 mm 2 mps 731 mmHg 94%
03:00 +25°C° 0.2 mm 2 mps 731 mmHg 94%
04:00 +25°C° 0.1 mm 1 mps 731 mmHg 95%
05:00 +25°C° 0.1 mm 1 mps 731 mmHg 95%
06:00 +25°C° 0.1 mm 1 mps 731 mmHg 96%
07:00 +25°C° 0 mm 1 mps 732 mmHg 94%
08:00 +26°C° 0 mm 2 mps 732 mmHg 92%
09:00 +26°C° 0 mm 2 mps 733 mmHg 90%
10:00 +27°C° 0 mm 2 mps 732 mmHg 86%
11:00 +28°C° 0 mm 2 mps 732 mmHg 81%
12:00 +29°C° 0 mm 2 mps 732 mmHg 77%
13:00 +29°C° 0.1 mm 2 mps 732 mmHg 76%
14:00 +29°C° 0.1 mm 3 mps 731 mmHg 76%
15:00 +29°C° 0.1 mm 3 mps 730 mmHg 76%
16:00 +28°C° 1.9 mm 3 mps 731 mmHg 82%
17:00 +27°C° 1.9 mm 3 mps 731 mmHg 87%
18:00 +25°C° 1.9 mm 3 mps 731 mmHg 93%
19:00 +25°C° 0.6 mm 3 mps 731 mmHg 94%
20:00 +24°C° 0.6 mm 2 mps 732 mmHg 95%
21:00 +24°C° 0.6 mm 2 mps 732 mmHg 96%
22:00 +24°C° 0 mm 1 mps 732 mmHg 97%
23:00 +24°C° 0 mm 1 mps 732 mmHg 97%

2 October, Friday

Time Temperature Precipitation Wind Pressure Humidity
00:00 +23°C° 0 mm 1 mps 732 mmHg 97%
01:00 +23°C° 0 mm 1 mps 732 mmHg 97%
02:00 +23°C° 0 mm 1 mps 731 mmHg 98%
03:00 +23°C° 0 mm 1 mps 731 mmHg 98%
04:00 +23°C° 0 mm 1 mps 731 mmHg 98%
05:00 +23°C° 0 mm 1 mps 731 mmHg 98%
06:00 +23°C° 0 mm 2 mps 731 mmHg 98%
07:00 +23°C° 0 mm 2 mps 732 mmHg 96%
08:00 +24°C° 0 mm 2 mps 732 mmHg 94%
09:00 +25°C° 0 mm 3 mps 733 mmHg 91%
10:00 +25°C° 0 mm 3 mps 733 mmHg 89%
11:00 +26°C° 0 mm 2 mps 732 mmHg 87%
12:00 +26°C° 0 mm 2 mps 732 mmHg 85%
13:00 +27°C° 0 mm 2 mps 732 mmHg 81%
14:00 +28°C° 0 mm 1 mps 731 mmHg 78%
15:00 +29°C° 0 mm 1 mps 731 mmHg 75%
16:00 +28°C° 0 mm 1 mps 731 mmHg 78%
17:00 +26°C° 0 mm 0 mps 731 mmHg 80%
18:00 +25°C° 0 mm 0 mps 731 mmHg 83%
19:00 +24°C° 1 mm 0 mps 732 mmHg 86%
20:00 +24°C° 1 mm 0 mps 732 mmHg 89%
21:00 +23°C° 1 mm 0 mps 733 mmHg 92%
22:00 +25°C° 0.3 mm 1 mps 733 mmHg 93%
23:00 +25°C° 0.3 mm 1 mps 732 mmHg 94%

3 October, Saturday

Time Temperature Precipitation Wind Pressure Humidity
00:00 +25°C° 0.3 mm 1 mps 732 mmHg 95%
01:00 +24°C° 0 mm 1 mps 732 mmHg 96%
02:00 +24°C° 0 mm 1 mps 732 mmHg 97%
03:00 +24°C° 0 mm 1 mps 732 mmHg 97%
04:00 +24°C° 0 mm 1 mps 732 mmHg 98%
05:00 +24°C° 0 mm 1 mps 732 mmHg 98%
06:00 +24°C° 0 mm 1 mps 732 mmHg 98%
07:00 +25°C° 0 mm 2 mps 733 mmHg 94%
08:00 +26°C° 0 mm 2 mps 733 mmHg 89%
09:00 +27°C° 0 mm 2 mps 734 mmHg 84%
10:00 +28°C° 0.1 mm 3 mps 733 mmHg 79%
11:00 +30°C° 0.1 mm 3 mps 733 mmHg 74%
12:00 +31°C° 0.1 mm 3 mps 733 mmHg 68%
13:00 +31°C° 0 mm 3 mps 732 mmHg 67%
14:00 +32°C° 0 mm 2 mps 732 mmHg 66%
15:00 +32°C° 0 mm 2 mps 731 mmHg 64%
16:00 +31°C° 0 mm 2 mps 731 mmHg 69%
17:00 +30°C° 0 mm 2 mps 731 mmHg 74%
18:00 +28°C° 0 mm 1 mps 731 mmHg 79%
19:00 +28°C° 0 mm 1 mps 732 mmHg 81%
20:00 +27°C° 0 mm 1 mps 733 mmHg 83%
21:00 +26°C° 0 mm 1 mps 733 mmHg 85%
22:00 +26°C° 0 mm 1 mps 733 mmHg 87%
23:00 +26°C° 0 mm 1 mps 733 mmHg 88%

4 October, Sunday

Time Temperature Precipitation Wind Pressure Humidity
00:00 +23°C° 0 mm 0 mps 733 mmHg 89%
01:00 +23°C° 0 mm 0 mps 733 mmHg 90%
02:00 +23°C° 0 mm 0 mps 733 mmHg 92%
03:00 +25°C° 0 mm 1 mps 733 mmHg 93%
04:00 +25°C° 0 mm 1 mps 733 mmHg 94%
05:00 +24°C° 0 mm 1 mps 733 mmHg 94%
06:00 +24°C° 0 mm 1 mps 733 mmHg 95%
07:00 +26°C° 0.4 mm 1 mps 734 mmHg 90%
08:00 +27°C° 0.4 mm 1 mps 734 mmHg 85%
09:00 +29°C° 0.4 mm 1 mps 735 mmHg 80%
10:00 +30°C° 0.6 mm 1 mps 734 mmHg 74%
11:00 +31°C° 0.6 mm 1 mps 734 mmHg 68%
12:00 +32°C° 0.6 mm 1 mps 734 mmHg 62%
13:00 +33°C° 0 mm 1 mps 733 mmHg 60%
14:00 +31°C° 0 mm 0 mps 732 mmHg 58%
15:00 +32°C° 0 mm 0 mps 732 mmHg 57%
16:00 +30°C° 0.1 mm 0 mps 732 mmHg 62%
17:00 +29°C° 0.1 mm 0 mps 732 mmHg 68%
18:00 +27°C° 0.1 mm 0 mps 732 mmHg 74%
19:00 +27°C° 0 mm 0 mps 733 mmHg 76%
20:00 +26°C° 0 mm 0 mps 733 mmHg 78%
21:00 +25°C° 0 mm 0 mps 734 mmHg 81%
22:00 +27°C° 0.1 mm 1 mps 734 mmHg 82%
23:00 +27°C° 0.1 mm 1 mps 733 mmHg 84%
Show more